OpenBCM V1.07b12 (Linux)

Packet Radio Mailbox

DB0FHN

[JN59NK Nuernberg]

 Login: GUEST





  
ZS6FB  > KEP      05.04.03 11:49l 79 Lines 3262 Bytes #999 (0) @ EU
BID : ARLK027A
Read: DB0FHN GUEST
Subj: ARLK027 Keplerian data
Path: DB0FHN<DB0ZWI<DB0HOT<DB0MRW<DB0RGB<OE5XBL<OE2XUM<OE5XBR<OE3XLR<S50BOX<
      9A0BBS<HA5OB<HA3PG<LZ3NP<F6CDD<F6GGY<F5KBW<F1HCI<F6KDS<F5KCK<F6HBB<
      F3KT<ZS6FB
Sent: 030405/0315Z @:ZS6FB.MPU.ZAF.AF #:62488 PACTOR-2: XFBB7.04 $:ARLK027A
From: ZS6FB@ZS6FB.MPU.ZAF.AF
To  : KEP@ARL


ZCZC SK27
QST de W1AW  
Keplerian Bulletin 27  ARLK027
From ARRL Headquarters
Newington, CT  April 4, 2003
To all radio amateurs 

SB KEP ARL ARLK027
ARLK027 Keplerian data

Thanks to Con, W5BWF, for the following Keplerian data.  

Decode 2-line elsets with the following key:
1 AAAAAU 00  0  0 BBBBB.BBBBBBBB  .CCCCCCCC  00000-0  00000-0 0  DDDZ
2 AAAAA EEE.EEEE FFF.FFFF GGGGGGG HHH.HHHH III.IIII JJ.JJJJJJJJKKKKKZ
KEY: A-CATALOGNUM B-EPOCHTIME C-DECAY D-ELSETNUM E-INCLINATION F-RAAN
G-ECCENTRICITY H-ARGPERIGEE I-MNANOM J-MNMOTION K-ORBITNUM Z-CHECKSUM

AO-07
1 07530U 74089B   03092.70742230 -.00000029  00000-0  10000-3 0  1608
2 07530 101.7518 140.0732 0012231 355.1605   4.9346 12.53565101298599
AO-10
1 14129U 83058B   03091.17918933 -.00000024 +00000-0 +10000-3 0 09244
2 14129 026.0433 157.4551 6010823 340.2144 004.1663 02.05867447120920
UO-11
1 14781U 84021B   03093.95278263  .00001983  00000-0  28112-3 0  1139
2 14781  98.1235  68.2419 0010615  68.2758 291.9588 14.78134528 22795
UO-14
1 20437U 90005B   03094.17094250  .00000157  00000-0  74725-4 0  2012
2 20437  98.2671 135.6398 0011821  68.9084 291.3358 14.31253358688877
AO-16
1 20439U 90005D   03093.61930741  .00000207  00000-0  93289-4 0  8733
2 20439  98.3086 147.0507 0012045  78.4416 281.8133 14.31490354688833
FO-20
1 20480U 90013C   03092.89036429 -.00000018 +00000-0 +41866-4 0 04806
2 20480 099.0534 047.5053 0539534 265.7650 088.1645 12.83331266616077
UO-22
1 21575U 91050B   03094.21233593  .00000381  00000-0  13609-3 0  7654
2 21575  98.1467  84.1028 0007956   6.2132 353.9157 14.39188138614708
AO-27
1 22825U 93061C   03093.93624715  .00000166  00000-0  81931-4 0  5232
2 22825  98.2710 121.3645 0009162 123.2997 236.9067 14.28959218496215
IO-26
1 22826U 93061D   03092.62938859 +.00000155 +00000-0 +77233-4 0 03297
2 22826 098.2719 121.2582 0009487 125.5860 234.6207 14.29182923496075
RS-15
1 23439U 94085A   03092.75270930 -.00000029  00000-0  37646-3 0  6925
2 23439  64.8192 331.6552 0146433 106.6332 255.0723 11.27548233340467
FO-29
1 24278U 96046B   03092.95503285 +.00000023 +00000-0 +55964-4 0 05779
2 24278 098.5431 238.2957 0351275 103.9553 260.0903 13.52877378327171
ISS
1 25544U 98067A   03094.19631819  .00031503  00000-0  39090-3 0  8539
2 25544  51.6355  31.8334 0008508  43.9363  39.2051 15.59695320249468
SO-41
1 26545U 00057A   03093.90128504  .00001864  00000-0  26534-3 0  4333
2 26545  64.5567 255.6542 0048829 231.7277 127.9427 14.79098373135772
MO-46
1 26548U 00057D   03093.78728558  .00002540  00000-0  33724-3 0  4361
2 26548  64.5556 248.3977 0041921 232.0397 127.6908 14.81422493135911
AO-40
1 26609U 00072B   03093.12981620 -.00000366  00000-0  10000-3 0  3237
2 26609   8.4077  56.1468 7953400 160.1620 273.2516  1.25596418 11138
NO-44
1 26931U 01043C   03093.40490086  .00000185  00000-0  10533-3 0  4405
2 26931  67.0471 142.7607 0005669 273.9912  86.0540 14.29140545 78614
SO-50
1 27607U 02058C   03093.93201716  .00001482  00000-0  26588-3 0   911
2 27607  64.5488  63.2686 0036079  90.8630 269.6653 14.70003344 15325

Keplerian bulletins are transmitted twice weekly from W1AW.  
The next scheduled transmission of these data will be Tuesday, 
April 8, 2003, at 2330z on Baudot and AMTOR.
NNNN


Read previous mail | Read next mail


 15.09.2025 12:33:35lGo back Go up